Showing default

VANGUARD 2, 11

Orbit data source: Space-Track

VANGUARD 2, 11 is a payload satellite owned by NASA BSC (US) in LEO that was launched on Tue, 17 Feb 1959 UTC via a VANGUARD launch vehicle from the Air Force Eastern Test Range (AFETR). Payload-class satellites include a variety of spacecraft equipped with specific instruments for various scientific and technological missions. These include communications satellites like Starlink; space stations such as the ISS; scientific satellites like the Hubble; Earth observation satellites from companies like Planet Labs, Umbra, and HawkEye 360; GPS; miniature CubeSats for education and research; and military/defense satellites.

Loading next visibility...
Identifier
11, 1959-001A
Orbit
LEO
Country
Flag of USUS
Related business
Manufacturer
NRL
Mission
Spacecraft
Bus & Motor
NRL 20", Unknown motor
Mass
10 kg wet, 10 kg dry
Launch date (UTC)
1959-02-17 (67 years ago)
Launch vehicle
VANGUARD
Launch site
Air Force Eastern Test Range (AFETR)
Object type
Payload
Rocket body
Debris
Shape & HBR
Unknown
Radar Cross Section
Medium (>0.1 m² and <1 m²)

Expand to show TLE details & history
Last TLE update: 11 hours ago

TLE from 11 hours ago
0 VANGUARD 2
1 00011U 59001A   26071.99183624  .00000986  00000-0  50142-3 0  9993
2 00011  32.8733  89.1658 1445751 229.4824 117.0719 11.90274636524001
Epoch: 2026-03-12T23:48Z
TLE epoch observation values (Epoch: 2026-03-12T23:48:14.651Z)
Latitude
-0.00001°
Longitude
-78.52904°
Altitude
2,377.481 km
Speed
6.472 km/s
True Right ascension
05h 56m 39s
True Declination
0° 00' 00"
Sunlit
Object was in daylight at epoch
Visualization orbit readout
Latitude
Unknown
Longitude
Unknown
Altitude
Unknown
Speed
Unknown
Apparent Right ascension
Unknown
Apparent Declination
Unknown
Sunlit
N/A
Visualization observer readout
Local Sidereal Time
15:39:37
Azimuth
Unknown
Elevation
Unknown
Doppler factor
Unknown
Orbital elements
Apogee altitude
2,899.758 km
Perigee altitude
555.914 km
Semi-major axis
8,105.973 km
Eccentricity
0.14458
Inclination
32.8733°
RAAN
89.1658°
Arg. of periapsis
229.4824°
True anomaly
130.57521°
Mean anomaly
117.0719°
Eccentric anomaly
123.94381°
Mean motion
2.97396 °/min
Orbital period
121.05 mins
BSTAR
0.00050142
Loading maneuver chart data...
Computing Atmospheric mass density...
Loading historical data...
Loading historical data...
Loading historical data...
Loading historical data...
Loading historical data...
Loading historical data...
Loading historical data...
Other satellites on launch #1 in the year 1959 (1959-02-17 UTC)

Documentation

Showing up to 5 results
|